Wind_Speed
22 20 18 16 14 12 3 1 7 12 13 13 14 12 13 15 14 12 11 9 6 7 8 8 8 9 10 11 11 11 12 12 12 12 12 12 11 11 11 11 11 11 11 11 11 11 11 11 10
25 23 21 19 18 12 4 5 10 15 16 12 12 12 14 14 12 10 8 7 4 6 5 6 6 7 8 8 9 10 10 10 11 11 11 11 10 10 10 10 10 10 11 11 11 11 11 11 10
27 25 24 24 22 14 7 5 10 14 12 11 12 12 11 11 9 7 7 6 5 5 4 5 5 6 6 6 7 7 8 8 9 9 9 9 9 9 9 9 9 10 10 10 11 11 11 11 11
28 28 27 27 26 16 10 8 11 11 9 9 9 9 8 8 7 7 7 7 6 6 5 4 4 4 4 4 4 5 5 6 7 7 8 8 8 8 8 8 9 9 9 10 10 11 11 11 11
30 30 30 30 30 21 15 12 15 14 11 8 8 10 6 6 6 7 7 7 7 6 5 4 4 4 3 3 2 2 2 4 5 5 6 6 7 7 7 8 8 9 9 10 11 11 11 12 12
31 31 32 30 27 21 15 14 19 17 14 12 8 11 5 6 7 8 7 7 7 6 6 6 5 4 4 3 2 1 1 2 3 4 4 5 6 7 7 8 8 9 10 11 11 12 12 12 12
30 31 31 28 24 21 17 17 20 18 16 14 10 11 6 7 8 9 8 7 7 6 5 5 6 6 5 4 3 3 2 2 3 4 5 6 6 7 7 8 9 10 10 11 12 13 13 13 13
27 29 30 29 26 24 20 20 22 19 17 16 13 12 10 10 10 10 9 8 7 6 5 5 5 5 5 4 3 3 3 3 3 4 6 6 7 8 8 9 10 10 11 12 13 14 13 13 13
24 27 27 26 24 21 19 20 20 20 20 19 16 15 15 12 11 10 9 8 6 5 4 3 4 4 4 4 4 4 4 5 5 6 7 7 8 9 9 10 10 11 12 13 14 14 13 13 13
21 21 19 22 21 17 17 21 20 19 21 20 18 17 15 13 13 11 9 7 5 3 1 2 3 5 6 6 6 6 6 6 7 8 8 8 9 10 10 11 11 12 13 14 15 15 15 14 14
19 18 19 21 19 20 20 20 22 23 21 17 14 14 14 15 14 13 11 8 5 4 3 3 5 7 8 9 9 9 10 10 10 10 11 11 11 12 12 13 14 15 15 15 16 16 16 16 15
20 19 20 21 20 25 26 24 25 26 23 19 17 18 17 15 14 14 12 9 7 7 6 7 8 9 11 12 12 12 12 13 13 13 14 14 14 14 15 15 16 17 17 18 18 18 18 18 18
21 20 20 21 21 23 28 29 29 28 25 23 22 20 19 17 16 14 12 11 10 9 10 10 11 13 14 15 15 15 15 15 16 16 17 18 19 19 19 20 19 20 20 20 21 21 21 21 21
23 22 22 20 19 19 23 27 28 27 26 24 22 21 21 18 17 15 14 13 12 11 11 12 14 15 17 18 19 19 19 19 19 20 21 23 24 25 25 25 25 25 23 23 24 23 23 25 25
25 24 22 19 16 16 18 23 26 25 24 22 19 20 18 19 17 15 15 14 14 12 13 14 15 17 19 20 22 22 22 23 23 23 25 27 28 30 31 30 31 30 29 28 28 27 29 29 30
27 25 22 18 15 14 17 20 23 24 22 21 19 19 19 18 16 16 17 16 16 14 14 16 17 18 21 23 24 25 25 26 27 28 29 31 33 34 34 34 34 34 33 33 33 31 33 33 33
27 25 21 18 16 15 16 18 18 19 21 22 20 19 20 19 17 19 21 18 17 15 15 17 19 20 22 25 26 27 28 29 30 31 32 33 36 37 37 34 34 35 35 35 34 34 35 36 36
24 21 20 18 17 17 16 18 17 18 21 22 20 20 20 19 18 19 21 21 19 18 17 19 22 23 25 27 28 30 30 31 32 33 35 36 37 37 36 35 35 33 33 33 32 33 35 36 37
22 16 16 14 15 18 18 21 20 19 20 21 21 20 19 19 21 23 23 24 23 21 20 22 25 27 28 29 30 32 32 32 33 35 37 38 39 37 34 35 34 33 32 31 30 30 30 31 33
30 26 21 16 17 22 22 24 24 21 20 23 23 23 23 23 24 24 25 26 27 25 24 24 27 29 31 32 33 33 33 34 35 37 38 39 39 37 34 33 34 33 31 29 28 27 26 28 29
33 30 25 20 22 29 29 27 28 27 26 26 27 28 28 28 27 26 27 29 30 29 27 27 29 32 34 35 34 34 35 35 36 38 40 40 38 36 34 32 32 31 30 29 28 28 27 28 29
34 32 30 29 28 28 31 29 28 29 30 30 30 32 32 30 29 29 31 32 32 32 32 31 32 34 35 36 35 36 37 37 37 39 40 41 39 37 35 32 31 31 30 29 30 28 28 29 30
30 30 31 33 34 32 31 29 24 25 29 30 33 35 34 32 33 33 33 34 35 35 36 35 34 35 36 36 36 37 38 38 39 40 41 41 40 38 35 33 32 32 31 31 31 31 31 31 31
28 26 26 31 34 36 33 31 24 23 27 32 37 38 36 34 34 34 35 36 37 38 38 38 36 36 36 37 37 38 39 40 41 42 42 41 39 38 36 35 34 34 33 33 33 34 34 34 35
28 27 25 27 32 33 28 30 29 30 32 35 39 40 38 36 36 36 37 38 38 38 38 37 37 36 37 37 38 39 40 41 42 42 42 40 39 38 38 37 36 36 36 35 35 35 36 37 39
25 27 26 19 14 14 17 21 25 34 37 38 39 42 43 42 41 40 38 37 36 35 35 36 36 36 36 37 38 40 41 42 42 42 41 41 40 40 40 38 38 38 38 38 37 38 39 41 43
22 24 23 23 21 17 13 22 31 32 34 37 41 45 46 46 44 41 37 34 33 32 33 34 35 36 37 38 39 40 41 41 42 42 43 43 43 42 42 41 41 41 41 41 41 42 43 44 46
23 19 20 25 24 20 14 21 30 31 31 31 34 38 41 41 40 37 34 31 31 31 32 33 34 36 37 38 39 41 41 43 44 45 45 45 45 45 45 45 44 44 44 44 44 45 46 48 50
21 22 22 23 23 22 19 21 26 29 29 30 31 30 30 31 32 31 30 30 30 31 32 33 35 36 38 39 41 42 43 45 46 46 47 47 48 48 48 48 48 48 47 48 48 49 50 51 53
17 20 22 24 24 23 23 25 30 30 30 30 30 28 27 28 29 30 30 31 31 32 33 34 36 37 39 40 42 43 44 45 46 47 49 50 50 51 51 51 51 51 51 51 52 53 54 55 55
Wind_Direction
219 214 212 206 192 168 97 311 260 265 264 264 267 274 273 265 265 268 266 262 255 241 246 243 240 242 243 244 243 244 245 246 248 250 251 250 249 250 251 250 250 249 248 248 249 250 251 252 252
221 217 214 208 196 177 220 228 247 254 262 276 283 277 271 269 268 263 252 245 215 221 225 230 231 235 239 241 242 244 246 248 252 254 253 250 249 249 250 249 248 248 248 251 252 253 253 255 256
222 220 218 211 199 191 205 199 251 258 267 273 281 285 281 275 263 248 229 220 196 200 203 214 220 225 230 234 239 245 251 255 258 259 256 253 252 251 251 249 248 249 251 253 256 258 259 260 261
223 221 220 214 204 195 224 247 260 257 258 266 276 285 284 267 246 223 209 200 184 181 190 196 203 209 216 226 235 248 260 267 270 268 265 263 261 259 257 254 252 251 254 259 262 264 265 266 267
223 222 220 216 209 205 222 240 257 252 243 252 264 268 270 248 218 199 191 183 172 168 174 170 172 171 176 187 205 244 275 284 285 282 279 276 274 272 267 261 257 256 261 264 266 268 269 270 269
221 221 221 218 213 216 231 251 257 249 240 236 236 257 238 217 191 177 173 168 160 156 154 146 138 130 127 129 129 108 19 336 321 311 305 298 290 282 275 269 266 265 267 268 268 269 270 270 270
220 220 219 217 215 216 221 236 245 240 237 231 211 249 228 205 183 169 164 161 149 141 137 130 118 108 101 97 92 80 51 6 337 326 318 312 305 298 289 282 276 272 269 268 267 268 270 270 269
218 219 217 214 214 215 215 232 239 230 232 230 206 219 218 200 187 173 164 159 147 135 122 109 100 91 83 71 56 43 31 9 348 335 329 323 317 309 301 294 285 279 274 270 268 268 269 269 268
214 217 216 213 215 217 220 233 233 226 226 229 215 213 214 204 197 186 177 171 162 147 122 93 72 52 45 39 27 15 10 4 353 342 337 333 325 315 305 297 290 285 280 276 273 271 270 268 266
215 216 211 209 205 213 226 230 224 219 226 230 217 213 215 210 208 207 202 197 192 183 152 49 18 10 10 9 4 359 356 349 342 336 333 329 324 316 307 298 292 287 283 279 276 274 272 269 265
216 213 208 203 201 207 213 222 217 213 216 227 235 227 223 221 221 227 225 224 230 241 261 314 333 345 346 345 345 343 342 341 339 332 329 326 320 313 305 299 292 287 284 280 277 276 273 271 267
218 216 215 208 211 217 204 205 212 212 207 210 221 235 235 227 231 240 246 248 260 273 285 302 316 327 333 336 337 336 337 337 337 333 329 326 320 313 306 297 290 287 284 279 276 274 273 271 268
221 222 223 222 222 223 210 206 205 204 205 206 211 221 229 229 236 244 255 261 271 284 293 304 313 320 327 330 332 333 334 334 333 331 328 325 322 316 310 304 294 290 286 280 275 272 271 271 269
222 226 229 231 231 228 215 210 206 200 203 211 215 219 220 225 236 244 254 263 271 282 291 301 311 318 321 324 327 329 331 331 331 330 329 327 325 322 315 310 304 296 287 281 275 270 268 269 269
223 228 231 235 234 225 216 206 201 199 204 215 221 229 231 228 234 244 255 263 268 278 288 298 307 314 317 319 320 324 326 327 327 328 328 326 324 324 319 312 311 305 293 281 275 270 268 269 269
224 228 232 235 233 220 212 198 194 201 208 218 224 233 243 238 238 243 252 259 269 275 286 294 301 308 311 314 315 319 321 322 324 325 324 324 324 322 322 317 315 313 305 294 284 273 269 269 271
223 228 232 234 235 221 209 189 189 208 215 220 221 228 237 242 242 251 251 251 263 274 285 294 299 304 306 308 310 313 315 318 319 322 322 320 320 321 325 323 319 314 312 305 294 284 276 273 273
221 229 233 233 236 228 205 179 178 213 220 222 220 227 238 241 245 252 262 264 266 273 283 291 295 299 301 303 304 306 310 313 314 316 317 316 317 320 327 328 324 319 313 308 302 292 285 280 277
200 219 235 234 234 240 216 188 183 214 219 216 223 228 236 243 249 253 257 264 271 276 281 288 291 294 296 297 298 299 302 305 307 309 310 314 316 318 325 329 330 326 319 313 309 301 291 286 283
205 205 206 212 220 235 229 206 195 210 228 219 216 224 229 233 240 248 256 263 270 274 278 283 287 290 291 292 292 294 297 299 300 302 305 309 314 321 321 322 325 327 324 319 314 312 301 295 291
212 209 196 196 216 230 230 221 209 210 226 232 226 224 228 232 239 248 256 264 269 273 276 279 282 286 286 286 289 289 290 292 295 299 302 306 311 316 316 318 320 322 321 320 318 319 309 304 299
216 214 205 198 208 230 240 235 225 222 227 236 240 240 238 240 246 251 255 261 267 273 276 277 280 282 283 284 285 285 287 288 291 294 298 302 305 308 310 313 316 318 318 318 319 318 312 309 303
218 216 216 212 215 222 235 240 235 240 243 245 246 246 245 246 248 253 258 263 268 272 275 278 280 280 280 281 281 281 283 286 289 291 294 297 299 302 305 306 310 311 311 312 315 315 313 309 303
216 215 220 222 224 230 233 238 238 236 243 244 246 248 252 256 258 260 262 265 268 272 275 278 278 277 277 277 278 280 283 285 287 289 291 293 296 299 301 301 304 305 306 308 310 310 308 305 301
217 212 218 229 230 238 243 243 237 232 236 238 245 253 259 262 264 266 267 267 268 270 272 273 274 274 275 276 277 280 281 283 285 288 289 291 294 296 298 298 299 301 303 304 305 304 303 301 300
225 217 214 220 244 264 266 260 243 239 240 240 244 250 256 262 266 269 269 268 268 268 268 270 271 271 273 274 276 278 279 282 284 287 289 291 293 294 295 295 296 297 299 300 301 300 298 297 296
222 227 219 211 207 228 239 237 240 245 246 246 246 249 254 260 265 268 268 266 265 265 265 266 267 269 270 272 275 277 279 282 285 287 289 291 292 292 292 294 294 296 297 297 297 297 296 294 294
221 222 223 217 217 226 224 234 244 249 251 255 255 256 257 259 261 262 262 263 263 263 263 263 264 266 269 271 274 277 279 282 284 286 288 289 290 290 291 292 294 294 295 295 295 295 294 293 293
221 217 218 223 226 232 236 243 251 251 248 249 252 254 256 257 258 259 260 261 261 261 261 262 264 265 267 270 273 276 278 281 283 284 286 287 288 289 290 291 292 293 293 294 294 294 294 294 293
226 225 223 227 225 227 233 251 254 256 258 257 255 254 256 257 257 258 259 259 259 260 261 263 264 266 268 270 273 276 278 280 282 283 284 286 287 288 288 289 290 291 292 293 293 294 294 294 293
Height
5879 5883 5886 5889 5893 5896 5897 5902 5903 5898 5894 5893 5893 5893 5892 5890 5890 5893 5890 5888 5890 5890 5890 5890 5891 5892 5892 5893 5894 5894 5895 5895 5896 5896 5896 5897 5897 5897 5897 5897 5897 5897 5897 5897 5897 5898 5898 5899 5899
5877 5880 5883 5887 5890 5892 5896 5899 5900 5895 5893 5892 5892 5892 5889 5888 5888 5888 5888 5887 5889 5889 5889 5889 5890 5890 5891 5891 5892 5893 5893 5893 5894 5895 5895 5896 5896 5896 5896 5896 5896 5896 5896 5896 5896 5896 5897 5897 5898
5873 5876 5880 5884 5887 5889 5892 5895 5895 5893 5892 5893 5892 5890 5888 5887 5887 5887 5887 5887 5888 5888 5889 5889 5889 5889 5890 5890 5891 5891 5892 5892 5893 5893 5894 5894 5895 5895 5895 5895 5894 5895 5894 5894 5895 5895 5895 5896 5896
5869 5873 5876 5881 5884 5887 5890 5893 5893 5892 5892 5892 5891 5889 5887 5887 5886 5886 5886 5887 5887 5888 5888 5888 5888 5889 5889 5889 5890 5890 5891 5891 5892 5892 5893 5893 5893 5893 5893 5893 5893 5893 5893 5893 5893 5893 5894 5894 5894
5864 5868 5872 5874 5879 5883 5888 5891 5891 5891 5891 5890 5890 5888 5887 5886 5886 5886 5886 5887 5887 5888 5888 5888 5888 5888 5889 5889 5889 5890 5890 5891 5891 5892 5892 5892 5892 5892 5892 5892 5892 5892 5892 5892 5891 5891 5892 5892 5892
5859 5863 5867 5871 5876 5881 5886 5889 5889 5889 5889 5889 5889 5887 5886 5886 5886 5886 5886 5887 5888 5888 5888 5888 5889 5889 5889 5889 5889 5890 5890 5890 5891 5891 5891 5891 5891 5891 5891 5891 5890 5890 5890 5890 5889 5889 5889 5889 5889
5855 5859 5862 5867 5873 5878 5883 5887 5886 5887 5888 5887 5886 5887 5886 5887 5887 5887 5887 5887 5888 5889 5889 5889 5889 5889 5889 5889 5890 5890 5890 5890 5890 5890 5890 5890 5890 5889 5889 5889 5889 5889 5888 5888 5887 5887 5887 5887 5887
5851 5855 5858 5863 5867 5873 5878 5881 5883 5884 5885 5884 5884 5885 5885 5887 5887 5887 5887 5888 5888 5889 5889 5889 5889 5889 5890 5890 5890 5890 5890 5890 5890 5889 5889 5889 5889 5888 5888 5888 5887 5887 5886 5885 5885 5884 5884 5884 5884
5848 5852 5854 5860 5864 5870 5875 5878 5880 5881 5882 5882 5880 5881 5883 5885 5887 5887 5887 5887 5888 5889 5889 5889 5889 5890 5890 5890 5890 5890 5889 5889 5889 5888 5888 5887 5887 5887 5887 5886 5885 5885 5884 5883 5883 5882 5881 5881 5881
5846 5849 5854 5857 5862 5868 5873 5875 5877 5879 5880 5879 5877 5877 5882 5885 5886 5887 5887 5887 5888 5888 5889 5889 5889 5889 5889 5889 5889 5889 5888 5888 5887 5887 5887 5886 5886 5885 5885 5884 5883 5882 5881 5881 5880 5880 5879 5878 5878
5844 5847 5850 5854 5858 5863 5868 5871 5874 5876 5878 5878 5877 5876 5880 5883 5885 5886 5887 5887 5887 5887 5888 5888 5888 5888 5888 5888 5888 5887 5887 5887 5886 5886 5885 5884 5884 5883 5882 5881 5881 5880 5879 5878 5877 5877 5877 5876 5876
5842 5845 5847 5850 5854 5857 5860 5865 5869 5872 5875 5877 5878 5877 5877 5881 5883 5885 5886 5886 5886 5887 5887 5887 5887 5887 5887 5887 5886 5886 5886 5885 5884 5883 5883 5882 5881 5881 5879 5878 5877 5876 5876 5875 5874 5873 5873 5873 5873
5839 5842 5844 5847 5849 5852 5855 5859 5862 5867 5871 5873 5874 5874 5875 5879 5882 5883 5884 5884 5885 5885 5886 5886 5886 5885 5885 5885 5884 5884 5884 5883 5882 5881 5880 5879 5878 5878 5877 5874 5872 5871 5871 5870 5869 5869 5869 5868 5868
5835 5838 5841 5844 5846 5848 5851 5855 5859 5863 5867 5870 5870 5871 5872 5876 5878 5881 5881 5882 5883 5884 5884 5884 5884 5884 5883 5882 5882 5881 5881 5880 5880 5879 5878 5876 5875 5874 5873 5872 5869 5868 5867 5865 5863 5862 5863 5863 5863
5831 5835 5838 5841 5843 5845 5849 5852 5857 5862 5865 5867 5868 5870 5870 5872 5874 5876 5878 5879 5880 5882 5882 5882 5882 5882 5881 5880 5879 5879 5878 5877 5877 5876 5874 5872 5871 5870 5868 5866 5864 5863 5861 5860 5859 5857 5856 5856 5856
5826 5830 5834 5838 5840 5843 5847 5851 5856 5860 5863 5866 5868 5870 5870 5869 5870 5873 5874 5876 5877 5879 5880 5879 5879 5879 5878 5877 5876 5876 5875 5874 5873 5872 5871 5869 5867 5865 5863 5860 5858 5856 5855 5853 5851 5851 5849 5849 5849
5823 5827 5831 5835 5838 5841 5845 5850 5855 5859 5862 5864 5866 5868 5868 5869 5870 5870 5868 5870 5873 5875 5877 5876 5876 5876 5875 5874 5873 5873 5872 5871 5870 5868 5867 5865 5862 5860 5858 5855 5852 5849 5847 5846 5845 5843 5842 5842 5842
5821 5825 5829 5832 5836 5838 5843 5848 5852 5857 5860 5862 5864 5866 5865 5866 5867 5868 5867 5866 5868 5871 5874 5873 5872 5872 5871 5870 5869 5869 5868 5867 5865 5864 5862 5860 5857 5856 5854 5851 5847 5844 5841 5839 5838 5836 5835 5835 5835
5816 5822 5827 5831 5834 5836 5840 5845 5848 5854 5856 5860 5861 5862 5863 5863 5864 5865 5865 5864 5865 5867 5869 5870 5868 5867 5867 5866 5865 5864 5863 5862 5861 5859 5857 5855 5853 5851 5849 5846 5842 5839 5835 5833 5831 5830 5829 5828 5828
5810 5815 5823 5830 5834 5834 5837 5841 5845 5850 5852 5855 5857 5859 5859 5860 5860 5861 5861 5861 5861 5863 5865 5865 5864 5863 5861 5860 5860 5859 5858 5857 5855 5853 5851 5850 5848 5846 5844 5842 5838 5834 5830 5827 5826 5824 5823 5822 5821
5806 5811 5818 5827 5831 5830 5833 5836 5841 5844 5848 5850 5852 5853 5853 5855 5856 5858 5858 5858 5857 5858 5859 5860 5859 5857 5855 5854 5854 5853 5852 5851 5849 5847 5846 5844 5843 5842 5839 5837 5834 5830 5827 5824 5821 5819 5817 5816 5815
5801 5807 5812 5818 5824 5826 5827 5831 5836 5839 5842 5844 5846 5847 5848 5851 5853 5854 5854 5853 5853 5853 5853 5853 5853 5851 5849 5848 5848 5846 5845 5844 5843 5842 5840 5838 5837 5836 5834 5831 5828 5825 5822 5819 5816 5814 5812 5810 5809
5796 5802 5807 5811 5815 5819 5822 5825 5831 5834 5836 5838 5838 5838 5841 5844 5845 5847 5848 5848 5848 5847 5846 5846 5845 5844 5843 5842 5841 5839 5838 5837 5836 5835 5834 5832 5831 5829 5827 5825 5822 5820 5817 5814 5811 5808 5806 5803 5802
5792 5798 5802 5805 5809 5812 5817 5820 5825 5829 5830 5830 5829 5830 5834 5837 5839 5841 5842 5842 5841 5841 5840 5838 5838 5836 5835 5834 5833 5831 5830 5829 5828 5827 5826 5825 5824 5822 5820 5818 5815 5813 5810 5807 5804 5801 5799 5796 5794
5788 5793 5798 5801 5803 5807 5813 5814 5819 5820 5820 5821 5823 5825 5828 5830 5832 5833 5834 5834 5834 5833 5832 5830 5830 5829 5828 5826 5825 5824 5823 5822 5820 5819 5818 5817 5815 5814 5812 5810 5807 5805 5802 5799 5796 5794 5791 5788 5785
5784 5789 5794 5800 5804 5807 5809 5809 5812 5811 5813 5817 5819 5820 5821 5822 5824 5825 5825 5825 5825 5824 5823 5822 5822 5821 5820 5819 5818 5817 5815 5813 5812 5811 5809 5808 5807 5805 5803 5801 5799 5796 5793 5790 5787 5785 5782 5778 5775
5781 5785 5790 5794 5797 5801 5805 5806 5802 5803 5807 5810 5812 5813 5814 5814 5815 5815 5816 5816 5816 5816 5816 5815 5814 5813 5812 5811 5810 5809 5807 5806 5804 5802 5800 5799 5797 5795 5793 5791 5788 5786 5783 5780 5777 5774 5771 5767 5764
5778 5782 5786 5789 5792 5795 5800 5800 5797 5798 5800 5801 5803 5804 5805 5806 5806 5806 5807 5807 5807 5808 5807 5807 5807 5806 5805 5804 5803 5801 5799 5798 5796 5794 5792 5790 5788 5785 5783 5780 5778 5775 5772 5769 5766 5763 5759 5756 5752
5775 5777 5780 5785 5788 5792 5795 5796 5788 5788 5790 5792 5793 5794 5795 5796 5797 5797 5798 5799 5799 5799 5799 5799 5799 5798 5797 5796 5794 5793 5791 5789 5787 5785 5783 5780 5778 5775 5772 5769 5766 5763 5760 5757 5753 5750 5747 5743 5739
5770 5773 5776 5779 5782 5785 5788 5789 5782 5783 5783 5783 5784 5786 5788 5789 5789 5790 5790 5790 5791 5791 5791 5791 5790 5790 5789 5787 5786 5784 5782 5780 5778 5775 5772 5770 5767 5764 5761 5757 5754 5751 5748 5744 5740 5737 5733 5729 5725